Hauptseite
METAR-TAF:

METAR-TAF

Flughäfen :

Capo Mele

Andora, Italien

Breite: 43-57N, Länge: 008-10E, Höhe: 220 m

Beobachtung

Neuester Wetterbericht von vor 1 Stunde und 13 Minuten, um 18:55 UTC
Windstille
Temperatur 7°C
Luftfeuchtigkeit 61%
Luftdruck 1019 hPa
Sichtweite 10 km oder mehr
Leicht bewölkt in der Höhe von 5000 ft

METAR: LIMU 151855Z 00000KT 9999 FEW050 07/00 Q1019 RMK SCT SCT060 QUK / QUL / VIS MAR 30 KM VIS MIN 9999

Zeit: 21:08 (20:08 UTC)


TAF: fehlend

Wetterbeobachtungen und Prognosen von mehr als 4000 Flughäfen (METAR und TAF Bericht).

Die verfügbaren Stationen werden durch gelbe und rote Markierungen auf der Karte dargestellt.

Führen Sie die Maus auf sie, um den Namen der Station zu sehen.

Darauf klicken, um die Beobachtung von Wetterbeobachtungen und Prognosen zu sehen.

Um die Karte zu ändern : klicken Sie auf den grünen Tasten mit einem schwarzen Kreuz Zum Vergrößern, auf den grünen Button mit einem Gedankenstrich zu verkleinern, oder auf die grünen Pfeile für benachbarte Karten.


METAR-TAF: